Regional Weather Roundup
Issued by NWS Kansas City/Pleasant Hill, MO

Home | Current Version | Previous Version | Text Only | Print | Product List | Glossary On
Versions: 1 2 3 4 5 6 7 8 9 10 11 12 13 14 15 16 17 18 19 20 21 22 23 24 25 26 27 28 29 30 31 32 33 34 35 36 37 38 39 40 41 42 43 44 45 46 47 48 49 50
571
ASUS43 KEAX 110310
RWREAX

WEATHER ROUNDUP FOR EASTERN KANSAS AND NORTHWEST MISSOURI
NATIONAL WEATHER SERVICE KANSAS CITY/PLEASANT HILL MO
900 PM CST WED FEB 10 2016

KSZ040-057-103>105-MOZ028-029-037-043-110400-
...KANSAS CITY METROPOLITAN AREA...

CITY           SKY/WX    TMP DP  RH WIND       PRES   REMARKS
K.C. INTL      PTCLDY    31  22  69 E15       30.01R WCI  20
K.C. DOWNTOWN  CLEAR     32  22  66 E8        30.01R WCI  25
LEES SUMMIT    CLEAR     31  20  63 E12       30.01R WCI  22
OLATHE - IXD   CLEAR     37  22  54 E8        29.98R WCI  31
OLATHE - OJC   CLEAR     36  20  52 E8        29.98R WCI  30
LAWRENCE       CLEAR     39  22  50 E9        29.99R WCI  33

$$

MOZ001>008-011>017-020>025-030>033-038>040-044>046-053-054-110400-
...NORTHERN AND CENTRAL MISSOURI...

CITY           SKY/WX    TMP DP  RH WIND       PRES   REMARKS
ST. JOSEPH     CLOUDY    29  22  75 E8        30.05R WCI  21
MOSBY          CLEAR     30  23  74 E7        30.03S WCI  23
WARRENSBURG    CLEAR     28  21  74 E8        30.02F WCI  20
WHITEMAN AFB   PTCLDY    27  21  78 SE12      30.02S WCI  17
CLINTON          N/A     32  23  69 E8        30.02S WCI  25
SEDALIA        CLEAR     26  19  74 E10       30.05F WCI  16
WARSAW         NOT AVBL
CHILLICOTHE      N/A     26  20  77 E9        30.11R WCI  17
KIRKSVILLE     CLOUDY    21  16  81 E7        30.12R WCI  12

$$

MOZ041-047>049-056>058-063>065-088>090-097-110400-
...EASTERN AND SOUTHERN MISSOURI...

CITY           SKY/WX    TMP DP  RH WIND       PRES   REMARKS
ST. LOUIS INTL FLURRIES  24  18  77 E5        30.15F WCI  18
SPIRIT OF STL  CLOUDY    23  19  85 CALM      30.14F
COLUMBIA       CLOUDY    22  18  85 E9        30.07F WCI  12
JEFFERSON CITY CLOUDY    24  18  77 E6        30.10F WCI  17
ROLLA            N/A     23  18  81 E10       30.04F WCI  12
OSAGE BEACH    CLEAR     27  18  69 E7        30.05S WCI  19
SPRINGFIELD    CLEAR     35  20  54 SE7       29.97S WCI  29
BRANSON        PTCLDY    39  18  41 SE7       29.99F WCI  34
JOPLIN         CLEAR     40  24  53 E7        29.94F
WEST PLAINS    CLEAR     31  10  41 E8        30.06S WCI  23

$$

IAZ060-094-KSZ022-034>040-054-083-096-NEZ052-066-093-110400-
...KANSAS...SOUTHEAST NEBRASKA AND IOWA...

CITY           SKY/WX    TMP DP  RH WIND       PRES   REMARKS
TOPEKA         CLEAR     40  23  50 NE6       29.99R
MANHATTAN      CLEAR     42  31  64 N6        29.99R
EMPORIA        CLEAR     44  29  55 NW7       29.95R
CHANUTE        CLEAR     36  27  69 CALM      29.94R
WICHITA        PTCLDY    48  29  47 NW9       29.96R
OMAHA          CLOUDY    25  19  78 NE8       30.12R WCI  16
LINCOLN        CLOUDY    30  24  78 N16       30.08R WCI  19
FALLS CITY     CLOUDY    32  22  66 E9        30.01R WCI  24
LAMONI         CLOUDY    22  17  81 NE10      30.10R WCI  11
DES MOINES     CLOUDY    18  11  74 NE10      30.16R WCI   6

$$





USA.gov is the U.S. government's official web portal to all federal, state and local government web resources and services.